Probability
35 58 94 94 90 94 97 97 97 97 97 100 100 100 97 90 90 94 94 97 97 94 90 97 94 90 81 87 90 87 90 94 90 90 90 84 87 84 87 90 74 58 90
48 68 97 94 90 90 94 97 97 97 97 100 100 97 97 97 97 97 97 97 97 97 97 90 90 94 97 94 94 90 90 90 84 87 87 84 87 90 87 90 74 71 81
65 77 90 94 87 87 94 97 97 94 97 97 97 97 97 97 97 97 94 94 94 94 94 94 94 97 97 90 94 94 94 87 90 87 77 65 81 87 84 87 84 87 87
65 68 77 97 94 90 94 97 97 97 97 97 97 97 97 97 97 94 94 97 97 94 94 90 87 87 87 90 94 97 94 90 87 65 35 52 71 90 87 90 90 84 84
65 74 97 97 97 97 97 97 97 97 94 94 94 94 97 97 97 97 94 97 97 94 87 90 90 87 87 90 87 87 87 84 74 26 19 35 68 94 94 94 87 81 74
68 84 97 97 97 97 97 97 97 97 97 94 97 97 97 97 97 94 90 94 94 90 90 94 90 87 94 87 84 84 81 77 23 16 26 42 65 87 84 81 71 68 74
74 90 94 97 97 97 97 97 97 97 94 94 100 100 100 97 94 90 90 87 87 87 87 94 87 87 90 84 90 87 77 61 13 19 29 42 68 90 90 77 74 74 65
77 87 90 97 97 94 94 97 97 97 97 97 100 97 97 94 90 87 87 81 81 81 84 81 77 71 81 84 87 84 68 55 23 19 26 55 74 94 81 87 77 77 68
84 81 84 87 94 94 94 97 97 97 97 100 100 97 97 94 94 87 84 77 81 81 74 68 65 58 65 71 74 74 71 52 13 16 23 48 71 81 68 74 74 71 61
77 81 81 81 84 87 87 97 97 97 97 100 100 97 97 94 87 87 87 84 77 74 74 61 58 55 58 65 74 74 74 42 10 16 26 55 74 77 71 65 68 52 55
74 74 71 81 81 84 87 90 90 97 94 97 97 97 87 61 71 81 87 84 81 68 55 58 58 55 61 65 68 77 42 13 6 19 26 52 81 81 84 74 68 58 58
71 74 71 71 77 77 87 77 74 81 74 65 65 45 39 35 48 74 94 94 71 71 65 68 74 55 32 19 39 35 16 13 10 13 29 55 68 61 71 65 61 65 52
55 74 71 68 65 71 68 68 68 65 65 58 58 32 29 29 26 35 52 58 39 45 26 29 29 19 16 10 13 10 13 6 10 19 32 61 74 65 48 58 48 48 45
42 61 65 58 55 55 58 61 55 61 48 55 42 35 23 19 16 13 19 32 26 23 13 16 10 6 10 6 3 3 10 6 10 13 26 65 81 68 52 58 45 42 45
35 42 48 58 55 48 35 48 52 45 42 35 29 29 23 19 16 16 19 13 16 13 10 6 6 10 6 3 0 3 6 6 6 6 19 48 77 87 61 52 42 39 32
32 29 35 45 42 39 29 29 35 35 32 29 26 26 23 19 16 16 13 16 16 13 6 6 10 6 0 3 3 0 3 6 10 6 6 32 65 84 81 74 52 42 42
29 29 32 29 26 29 29 29 35 26 29 32 26 29 26 19 13 13 13 16 13 13 6 3 3 0 0 0 0 0 0 6 10 6 6 13 32 65 81 71 71 55 52
23 19 32 48 35 26 29 29 23 32 23 26 26 23 26 16 10 10 13 13 10 10 6 6 0 0 0 0 0 0 0 0 6 10 10 10 16 10 42 71 71 68 61
35 26 35 35 32 26 29 19 19 26 26 23 19 19 23 23 19 19 19 16 10 6 3 0 0 0 0 0 0 6 3 3 3 6 6 3 3 10 10 16 61 61 61
32 32 35 26 23 19 19 13 23 19 19 16 16 13 23 23 19 16 23 16 16 6 3 0 0 0 0 0 3 3 3 3 0 0 0 3 3 3 3 6 16 35 45
39 39 32 26 23 16 26 26 23 23 16 16 10 10 19 19 23 16 19 13 13 13 10 10 3 6 6 0 3 3 0 0 0 0 0 0 0 0 3 3 6 10 16
39 32 32 29 23 19 29 26 23 13 16 13 10 16 13 13 16 23 13 13 13 13 6 6 6 6 3 0 0 0 0 0 0 0 0 0 0 0 3 0 0 6 10
45 39 39 32 32 26 19 16 16 13 13 26 23 16 16 16 19 16 10 13 13 13 6 6 6 3 0 0 0 0 0 0 0 0 0 0 0 0 0 0 0 0 0
48 42 35 29 29 39 26 32 29 23 23 16 13 16 13 23 26 19 10 10 10 6 0 0 0 0 0 0 0 0 0 0 0 0 0 0 0 0 0 0 0 0 0
42 39 42 45 35 42 32 39 35 29 16 6 6 19 13 13 16 16 13 10 6 6 0 3 0 0 0 0 0 0 0 0 0 0 0 0 0 0 0 0 0 0 0
42 55 48 45 42 35 39 35 32 42 23 23 16 19 13 6 10 10 10 6 6 6 6 3 0 0 0 0 0 0 0 0 0 0 0 0 0 0 0 0 0 0 0
Height
5885 5885 5884 5884 5884 5884 5884 5884 5884 5884 5885 5886 5886 5886 5887 5887 5887 5888 5888 5889 5889 5889 5889 5889 5889 5890 5890 5890 5890 5890 5890 5890 5890 5890 5890 5890 5890 5890 5889 5890 5890 5890 5890
5887 5886 5886 5886 5885 5885 5885 5886 5886 5886 5887 5887 5888 5888 5888 5889 5889 5890 5890 5890 5890 5890 5890 5891 5891 5891 5891 5892 5892 5891 5891 5892 5891 5891 5891 5891 5891 5891 5891 5891 5891 5891 5891
5889 5888 5888 5887 5887 5887 5887 5887 5888 5888 5888 5889 5889 5890 5890 5891 5891 5891 5892 5892 5892 5892 5892 5893 5893 5893 5893 5893 5893 5893 5893 5893 5893 5893 5892 5892 5892 5892 5892 5892 5892 5892 5892
5891 5890 5889 5889 5889 5888 5888 5889 5889 5890 5890 5890 5891 5891 5892 5892 5893 5893 5893 5893 5893 5894 5894 5894 5894 5894 5894 5894 5894 5895 5894 5894 5894 5894 5894 5894 5894 5894 5893 5893 5893 5893 5893
5892 5891 5890 5890 5890 5890 5890 5890 5890 5891 5891 5892 5892 5892 5893 5893 5894 5894 5895 5895 5895 5895 5896 5896 5896 5896 5896 5896 5896 5896 5896 5896 5896 5895 5895 5895 5895 5895 5895 5894 5894 5894 5894
5893 5892 5892 5891 5891 5891 5891 5891 5891 5892 5892 5893 5893 5894 5894 5894 5895 5895 5896 5896 5897 5897 5897 5897 5898 5897 5897 5897 5897 5897 5897 5897 5897 5897 5897 5896 5896 5896 5896 5896 5895 5895 5896
5895 5894 5893 5893 5893 5892 5892 5892 5892 5893 5893 5894 5894 5895 5895 5896 5896 5897 5897 5897 5898 5898 5899 5899 5899 5899 5899 5899 5899 5899 5898 5898 5898 5898 5898 5898 5897 5897 5897 5897 5897 5897 5897
5896 5895 5894 5894 5894 5894 5894 5894 5894 5894 5894 5895 5895 5896 5896 5897 5897 5898 5898 5899 5899 5899 5900 5900 5900 5900 5900 5900 5900 5900 5900 5900 5900 5900 5899 5899 5899 5899 5899 5898 5898 5898 5898
5897 5896 5896 5895 5895 5895 5895 5895 5895 5895 5896 5896 5896 5897 5897 5898 5898 5899 5899 5900 5900 5900 5901 5901 5901 5901 5901 5901 5901 5901 5901 5901 5901 5901 5901 5900 5900 5900 5900 5900 5899 5899 5899
5899 5898 5897 5897 5897 5897 5896 5896 5897 5897 5897 5897 5897 5898 5898 5899 5899 5900 5900 5901 5901 5902 5902 5902 5902 5902 5902 5902 5902 5902 5902 5902 5902 5902 5902 5902 5902 5901 5901 5901 5901 5900 5900
5900 5899 5899 5898 5898 5898 5897 5898 5898 5898 5898 5898 5898 5899 5899 5900 5900 5901 5901 5902 5902 5902 5903 5903 5903 5903 5903 5903 5903 5903 5903 5903 5903 5903 5903 5903 5903 5903 5902 5902 5902 5902 5901
5902 5901 5900 5900 5899 5899 5899 5899 5899 5899 5899 5899 5899 5900 5900 5901 5901 5901 5902 5902 5903 5903 5904 5904 5904 5904 5904 5904 5905 5905 5904 5904 5904 5904 5904 5904 5904 5904 5904 5903 5903 5903 5902
5904 5903 5902 5901 5900 5900 5900 5900 5900 5900 5900 5900 5900 5900 5901 5901 5902 5902 5903 5903 5904 5904 5905 5905 5905 5905 5905 5905 5905 5905 5905 5905 5905 5905 5905 5905 5905 5905 5905 5904 5904 5904 5903
5905 5904 5903 5902 5901 5901 5901 5901 5901 5900 5900 5901 5901 5901 5902 5902 5903 5903 5904 5904 5905 5905 5906 5906 5906 5906 5906 5906 5906 5906 5906 5906 5906 5906 5906 5906 5906 5906 5905 5905 5905 5905 5904
5907 5906 5904 5902 5902 5902 5902 5902 5902 5901 5901 5901 5902 5902 5902 5903 5904 5904 5904 5905 5905 5906 5906 5906 5907 5907 5907 5907 5907 5907 5907 5907 5907 5906 5907 5907 5907 5906 5906 5906 5906 5905 5905
5909 5908 5906 5905 5904 5903 5903 5903 5903 5902 5902 5902 5902 5903 5903 5904 5904 5905 5905 5906 5906 5906 5907 5907 5907 5907 5908 5908 5908 5908 5908 5908 5907 5907 5907 5907 5907 5907 5907 5906 5906 5906 5905
5911 5909 5908 5907 5906 5905 5904 5904 5903 5903 5903 5903 5903 5903 5904 5904 5905 5905 5906 5906 5906 5907 5907 5907 5908 5908 5908 5908 5908 5908 5908 5908 5908 5908 5907 5907 5907 5907 5907 5906 5906 5906 5905
5913 5911 5910 5908 5907 5906 5905 5905 5904 5904 5903 5903 5903 5904 5904 5904 5905 5905 5906 5906 5906 5907 5907 5907 5908 5908 5908 5909 5908 5908 5908 5908 5908 5908 5907 5907 5907 5907 5907 5906 5906 5905 5905
5914 5913 5911 5910 5909 5908 5907 5906 5905 5904 5904 5904 5904 5904 5905 5905 5905 5905 5906 5906 5906 5906 5907 5907 5908 5908 5908 5908 5908 5908 5908 5908 5908 5907 5907 5907 5907 5906 5906 5906 5905 5904 5904
5916 5914 5913 5912 5910 5909 5907 5907 5906 5905 5905 5904 5904 5905 5905 5905 5905 5905 5905 5905 5906 5906 5906 5907 5907 5907 5908 5908 5908 5908 5908 5907 5907 5907 5906 5906 5906 5905 5905 5904 5904 5903 5902
5917 5916 5914 5913 5911 5909 5908 5907 5907 5906 5906 5905 5905 5905 5905 5905 5905 5905 5905 5905 5905 5906 5906 5906 5906 5907 5907 5907 5907 5907 5907 5906 5906 5905 5905 5905 5904 5904 5903 5903 5902 5901 5901
5918 5917 5915 5914 5912 5910 5909 5908 5907 5907 5906 5906 5905 5905 5904 5904 5904 5905 5905 5905 5905 5905 5905 5905 5905 5905 5905 5906 5906 5905 5905 5905 5904 5904 5903 5903 5903 5902 5901 5901 5900 5899 5898
5919 5917 5916 5914 5913 5912 5910 5909 5908 5907 5906 5906 5905 5904 5904 5904 5903 5903 5903 5903 5904 5904 5904 5904 5904 5904 5904 5904 5904 5904 5903 5903 5902 5902 5901 5901 5900 5900 5899 5898 5897 5896 5895
5918 5917 5916 5914 5912 5911 5910 5909 5908 5907 5906 5905 5904 5904 5903 5903 5902 5902 5902 5902 5902 5902 5902 5902 5902 5902 5902 5902 5901 5901 5901 5901 5900 5899 5899 5898 5897 5897 5896 5895 5894 5893 5892
5917 5916 5915 5914 5912 5910 5910 5909 5908 5907 5906 5905 5904 5903 5902 5901 5901 5900 5900 5900 5900 5900 5900 5900 5900 5900 5900 5900 5899 5899 5898 5898 5897 5896 5896 5895 5894 5893 5893 5892 5891 5890 5888
5916 5915 5914 5913 5912 5911 5910 5908 5907 5906 5905 5904 5903 5902 5901 5900 5900 5899 5899 5898 5898 5898 5897 5897 5898 5898 5897 5897 5896 5896 5895 5895 5894 5893 5892 5891 5890 5890 5889 5888 5887 5886 5884
Wind_Speed
11 12 13 14 15 15 14 13 12 12 11 10 10 9 9 9 9 10 10 10 10 10 10 10 10 10 10 10 10 10 10 10 10 9 9 8 8 8 8 9 8 8 9
11 11 12 13 13 14 14 13 12 12 11 10 10 9 9 9 9 9 9 9 9 9 10 9 10 10 10 10 10 10 9 9 9 9 9 8 8 8 8 8 8 8 8
10 11 12 12 12 13 12 12 12 11 10 10 10 9 9 9 8 8 8 8 9 9 9 9 9 9 9 9 9 9 9 9 8 9 9 9 8 8 8 8 8 8 8
10 11 12 12 12 12 11 11 10 10 10 10 10 9 9 8 8 7 8 8 8 8 9 9 9 9 9 9 9 9 9 8 9 9 9 9 8 8 8 8 8 8 8
10 11 12 12 12 12 11 10 10 9 9 9 9 8 9 8 7 7 7 8 8 8 9 9 8 9 9 9 9 8 8 8 9 9 9 9 9 8 8 8 8 8 8
9 10 11 12 11 11 11 10 9 9 8 8 8 8 8 8 8 7 7 7 8 8 8 8 8 8 8 8 8 8 8 9 9 10 9 9 9 8 8 8 8 8 8
9 10 10 11 11 11 11 10 9 9 8 8 8 8 8 7 7 7 7 7 7 7 8 8 7 7 8 7 8 8 8 8 9 9 9 9 9 9 9 8 8 8 8
9 9 10 10 10 10 10 10 10 9 8 7 7 8 7 7 7 7 6 6 7 7 7 7 7 7 7 7 7 8 8 8 8 9 9 9 8 8 8 8 8 8 8
10 10 10 9 9 9 9 9 9 8 7 7 7 7 7 6 6 6 6 6 6 7 7 7 6 6 7 7 7 7 7 8 8 8 8 8 8 8 8 7 7 7 7
11 11 10 9 9 9 9 8 8 8 7 6 6 6 6 6 6 6 6 6 6 6 6 6 6 6 6 6 7 7 6 6 7 7 7 8 7 7 7 7 7 7 6
12 11 10 9 9 8 8 8 7 7 7 6 6 6 6 5 5 6 6 6 6 6 6 5 5 6 6 5 6 5 5 6 6 7 7 7 7 7 7 7 7 7 6
13 11 10 9 8 7 7 7 7 7 6 6 6 5 5 5 5 6 6 6 6 6 6 5 5 5 5 5 5 5 5 5 5 6 6 6 6 6 6 6 6 6 6
14 12 10 9 8 7 7 6 6 6 6 6 6 5 5 5 5 6 6 6 6 6 5 5 4 4 4 4 4 5 5 5 5 4 5 5 5 5 5 5 5 5 5
14 12 11 9 8 7 7 7 6 5 5 5 5 5 4 5 5 5 5 5 5 5 4 4 3 3 3 3 3 3 4 4 4 4 3 4 4 4 4 4 4 4 4
14 13 11 9 8 7 7 7 6 5 5 5 5 5 5 5 5 5 4 4 5 4 4 4 3 3 3 2 2 2 2 3 3 3 3 3 3 3 3 4 3 3 3
14 13 12 11 10 8 7 7 7 6 5 5 5 4 4 4 4 4 4 4 3 3 3 3 3 2 2 2 2 2 2 1 1 2 2 2 2 2 3 3 3 3 3
14 13 13 11 10 9 8 7 6 5 5 5 5 4 3 3 4 4 3 3 2 2 2 2 2 2 1 1 1 1 1 1 1 1 2 2 2 3 3 3 3 4 4
14 14 13 12 11 9 8 6 5 4 4 4 4 4 3 3 3 2 2 2 1 1 2 2 1 0 1 1 1 2 2 3 2 2 3 3 4 4 5 5 5 5 6
14 13 12 11 11 10 8 6 4 3 3 3 3 3 2 2 2 1 1 1 1 1 2 2 2 2 2 2 2 3 4 4 3 4 4 5 5 6 6 6 7 7 7
12 12 12 11 10 9 8 6 4 3 3 2 1 1 1 1 2 1 1 1 1 2 2 3 3 3 3 4 4 5 5 5 6 6 6 6 6 7 7 8 8 9 9
12 11 10 10 10 9 8 6 5 3 3 1 1 1 1 2 2 3 3 2 2 2 3 4 4 5 5 5 6 6 7 7 7 8 8 8 8 9 9 10 10 10 10
11 11 10 10 10 10 8 7 5 3 3 2 1 2 2 2 3 4 4 4 4 4 4 5 6 6 7 6 7 8 8 9 9 9 10 10 11 11 11 12 12 12 12
11 10 10 9 9 9 8 7 5 4 3 3 2 3 4 3 3 5 5 6 5 6 6 7 8 8 8 8 9 9 10 11 11 12 12 12 12 13 13 13 13 14 14
11 11 10 9 9 8 8 8 7 6 5 4 4 4 5 4 4 5 6 7 7 7 8 9 9 9 10 10 10 11 12 12 13 13 14 14 14 14 15 15 15 15 15
11 10 10 10 10 8 8 8 8 7 6 6 6 7 6 5 5 5 6 7 9 9 10 10 11 11 11 12 12 13 13 14 14 15 15 16 16 16 16 16 17 17 17
10 10 10 9 9 9 8 8 8 8 7 7 8 7 7 6 6 6 7 7 9 10 11 11 12 12 13 13 13 14 14 15 15 16 16 17 18 18 18 18 18 18 18
Wind_Direction
73 74 77 79 80 80 81 80 77 76 77 77 78 83 86 86 88 88 92 93 93 94 94 94 94 93 91 91 91 88 86 84 82 81 82 82 81 83 86 86 86 88 95
74 77 78 79 80 80 80 80 78 79 79 77 79 84 86 88 89 91 92 91 92 92 91 91 91 91 90 88 87 85 83 80 79 80 81 81 80 84 87 86 85 88 92
77 79 79 78 78 78 79 80 79 79 78 76 80 83 86 89 90 91 91 92 90 89 91 90 90 89 87 86 84 81 79 76 76 80 80 79 80 83 85 85 86 87 89
77 79 79 79 78 77 78 79 79 77 75 77 83 85 86 88 92 94 93 91 89 88 90 89 87 86 86 84 82 79 75 74 76 77 78 78 79 82 81 83 85 88 90
75 78 78 78 78 78 77 79 79 78 77 78 82 83 87 88 88 92 93 90 89 90 90 89 87 87 87 86 83 78 74 76 75 75 77 78 80 81 81 81 85 89 90
74 78 77 75 77 78 78 79 80 79 80 80 78 83 87 86 83 89 95 92 91 91 90 88 86 86 88 87 84 80 77 77 77 75 75 77 79 79 79 80 81 86 87
73 77 77 77 78 78 77 79 82 82 83 81 80 86 87 84 82 85 92 91 93 93 89 87 85 88 88 87 87 82 80 78 76 74 72 75 76 76 78 79 79 82 84
70 74 74 74 76 76 76 80 82 80 78 78 84 86 85 86 85 81 83 85 89 93 89 88 88 88 87 88 85 83 79 77 75 73 74 73 72 73 75 76 78 80 84
70 70 72 77 78 76 77 78 79 78 77 80 86 87 87 89 85 83 87 87 91 92 90 90 90 88 85 84 82 80 75 75 75 73 74 72 69 69 70 73 74 75 82
64 67 71 80 83 80 75 74 79 75 77 81 88 89 88 86 83 84 90 89 90 92 90 91 92 88 86 84 82 78 74 74 74 75 74 72 69 67 67 68 69 72 76
59 64 67 71 79 77 76 75 76 73 75 82 92 92 93 90 84 85 89 91 90 94 95 96 95 92 88 85 82 75 76 72 73 76 73 70 67 65 65 66 67 70 73
56 59 62 67 66 71 74 75 75 75 75 82 91 97 98 95 93 92 95 94 90 94 95 95 96 96 90 87 87 76 74 74 73 75 71 67 64 62 61 62 64 67 70
50 51 54 60 65 69 74 74 75 77 81 88 94 98 103 103 102 98 101 98 94 97 95 95 97 96 89 83 77 70 70 70 72 73 65 62 60 58 57 57 58 60 61
47 48 48 51 60 71 72 66 67 77 83 93 97 99 102 103 109 103 101 99 97 97 96 97 95 93 89 84 76 70 68 70 75 69 62 58 55 53 52 52 51 51 49
42 44 46 49 59 62 65 61 58 65 80 93 98 100 102 103 105 105 103 100 97 97 99 99 102 102 98 91 82 73 72 70 76 67 62 52 47 44 40 38 37 34 30
40 42 45 50 52 61 67 64 63 67 77 88 94 99 103 103 110 113 112 108 102 97 101 104 98 107 102 83 70 66 77 57 58 49 49 39 29 23 17 15 12 1 356
37 40 43 47 53 56 57 57 56 59 73 82 93 96 102 108 120 121 118 116 111 114 123 112 98 97 98 81 52 35 18 355 356 359 356 358 351 347 346 341 335 333 329
34 36 39 41 44 46 45 46 45 54 68 85 95 95 97 112 133 138 146 136 141 152 159 154 156 326 340 335 343 337 336 331 331 329 323 321 323 327 324 324 320 319 318
30 31 34 33 34 35 35 35 40 50 73 95 107 103 112 135 144 151 171 174 172 193 200 191 208 249 280 298 308 311 310 313 310 309 311 307 308 313 317 318 317 314 313
26 28 28 28 26 27 26 26 36 48 61 86 100 138 176 178 194 246 267 214 221 233 229 225 239 256 267 281 292 297 294 295 295 296 297 297 301 304 307 308 308 307 307
19 20 22 20 21 23 23 22 26 31 33 35 10 322 280 257 239 257 260 243 244 250 247 249 256 263 267 277 287 291 290 289 289 291 293 294 295 297 299 302 303 304 302
12 13 14 13 17 22 25 19 17 12 2 357 345 324 304 283 267 265 257 252 252 258 258 261 268 272 273 277 283 288 290 291 289 287 289 291 292 293 293 296 297 296 298
360 2 1 6 13 15 13 8 0 354 346 339 321 321 319 302 274 263 263 261 262 263 265 268 272 273 276 278 281 284 285 287 289 288 287 289 290 289 289 292 293 291 291
351 352 348 355 358 3 3 1 360 351 338 322 310 305 307 307 291 281 267 266 265 266 267 270 272 273 276 279 281 283 284 286 287 286 287 287 287 287 289 290 292 292 291
344 344 340 347 349 351 352 356 355 349 333 322 314 306 303 309 304 294 281 273 268 265 267 269 268 270 273 277 279 281 283 286 287 287 287 288 288 287 288 289 291 291 291
332 337 339 336 340 340 338 338 343 341 334 325 321 316 309 303 300 299 292 282 274 267 265 266 269 272 273 276 277 279 282 286 287 287 287 287 288 288 289 289 290 291 291